Date,TemperatureHighF,TemperatureAvgF,TemperatureLowF,DewpointHighF,DewpointAvgF,DewpointLowF,HumidityHigh,HumidityAvg,HumidityLow,PressureMaxIn,PressureMinIn,WindSpeedMaxMPH,WindSpeedAvgMPH,GustSpeedMaxMPH,PrecipitationSumIn
2013-1-1,26.0,22.8,18.0,17.0,13.5,11.0,75,67,59,30.08,29.96,5,0,11,0.00
2013-1-2,26.0,22.0,17.0,22.0,16.7,11.0,86,80,75,30.09,29.98,2,0,9,0.00
2013-1-3,29.0,25.8,21.0,24.0,20.5,16.0,86,80,76,30.05,29.94,9,1,13,0.00
2013-1-4,35.0,29.6,27.0,26.0,23.3,21.0,84,77,69,30.07,29.87,11,3,21,0.00
2013-1-5,37.0,28.1,16.0,31.0,24.3,14.0,93,85,71,30.16,29.88,6,1,9,0.00
2013-1-6,35.0,33.7,30.0,34.0,30.4,25.0,100,88,77,30.18,29.78,4,1,10,0.08
2013-1-7,38.0,32.1,28.0,27.0,25.2,23.0,87,76,55,30.23,30.00,15,3,20,0.01
2013-1-8,41.0,32.1,27.0,33.0,26.8,23.0,86,81,72,30.13,30.01,4,1,7,0.00
2013-1-9,46.0,38.3,28.0,35.0,29.9,24.0,88,72,53,30.35,29.86,24,3,24,0.01
2013-1-10,45.0,33.1,23.0,32.0,27.0,21.0,93,79,60,30.47,30.11,4,0,10,0.10
2013-1-11,51.0,43.1,35.0,50.0,41.6,32.0,96,94,90,30.11,29.64,4,1,9,0.78
2013-1-12,57.0,48.9,42.0,50.0,42.0,33.0,95,78,56,29.87,29.68,10,2,15,0.01
2013-1-13,42.0,35.2,27.0,36.0,33.0,23.0,95,92,79,29.95,29.72,3,0,9,0.38
2013-1-14,27.0,22.0,14.0,23.0,15.7,11.0,90,77,62,30.33,29.95,9,1,13,0.03
2013-1-15,28.0,19.0,12.0,20.0,14.4,9.0,91,83,70,30.34,30.08,6,0,6,0.01
2013-1-16,35.0,25.0,14.0,30.0,20.4,11.0,90,83,64,30.08,29.65,12,2,18,0.01
2013-1-17,32.0,24.8,17.0,29.0,18.0,8.0,87,75,62,30.24,29.86,6,0,9,0.01
2013-1-18,35.0,21.8,8.0,27.0,15.8,5.0,88,78,63,30.33,29.79,16,2,21,0.00
2013-1-19,42.0,38.0,34.0,38.0,31.8,26.0,84,78,73,29.80,29.41,8,1,21,0.02
2013-1-20,36.0,20.3,13.0,32.0,11.4,5.0,90,68,59,30.09,29.42,15,3,25,0.02
2013-1-21,15.0,11.5,4.0,11.0,2.8,-5.0,83,68,53,30.06,29.88,6,1,17,0.00
2013-1-22,10.0,4.0,-1.0,-1.0,-4.5,-8.0,75,67,54,30.19,30.02,4,1,13,0.00
2013-1-23,17.0,10.4,3.0,12.0,5.2,-3.0,85,79,71,30.20,29.99,6,0,12,0.00
2013-1-24,19.0,11.3,4.0,9.0,4.6,0.0,92,75,51,30.53,30.07,3,0,5,0.00
2013-1-25,22.0,16.9,12.0,17.0,12.2,5.0,89,82,72,30.42,29.92,3,0,9,0.00
2013-1-26,31.0,21.9,14.0,20.0,15.8,10.0,90,78,57,30.35,29.96,3,0,7,0.05
2013-1-27,30.0,22.5,12.0,25.0,17.4,9.0,92,81,65,30.37,30.05,6,0,10,0.01
2013-1-28,41.0,35.2,27.0,40.0,33.4,25.0,100,93,89,30.05,29.75,5,0,10,0.30
2013-1-29,54.0,43.4,34.0,53.0,42.0,32.0,97,95,92,29.94,29.34,5,0,7,0.81
2013-1-30,54.0,42.0,31.0,53.0,40.7,26.0,97,95,83,29.34,28.98,6,1,18,0.74
2013-1-31,31.0,21.5,18.0,26.0,12.9,9.0,82,69,56,29.78,29.14,14,3,16,0.02
2013-2-1,19.0,16.6,13.0,13.0,9.3,6.0,81,73,61,30.11,29.78,7,1,19,0.00
2013-2-2,20.0,14.6,5.0,13.0,9.0,2.0,86,78,61,30.07,29.91,5,0,11,0.00
2013-2-3,20.0,12.3,3.0,15.0,7.4,0.0,87,81,65,29.95,29.76,5,0,13,0.00
2013-2-4,23.0,14.6,5.0,15.0,10.2,2.0,89,83,64,29.93,29.82,1,0,5,0.00
2013-2-5,28.0,16.1,1.0,25.0,11.8,-2.0,88,83,72,29.91,29.67,4,0,11,0.00
2013-2-6,29.0,21.5,8.0,21.0,15.2,5.0,91,77,63,30.19,29.91,5,0,7,0.01
2013-2-7,33.0,28.5,25.0,28.0,24.8,21.0,93,85,77,30.19,29.88,4,0,9,0.01
2013-2-8,33.0,26.1,10.0,27.0,21.3,7.0,94,83,63,30.30,29.83,7,1,13,0.00
2013-2-9,29.0,12.7,-2.0,19.0,7.8,-6.0,88,81,65,30.35,30.20,3,0,5,0.00
2013-2-10,39.0,22.7,5.0,37.0,18.6,2.0,93,84,71,30.20,29.57,6,0,13,0.32
2013-2-11,42.0,37.4,33.0,40.0,32.7,28.0,95,83,71,29.73,29.41,19,4,26,0.36
2013-2-12,33.0,30.1,27.0,28.0,23.7,20.0,81,76,71,29.93,29.73,6,2,16,0.01
2013-2-13,34.0,29.5,22.0,28.0,25.1,19.0,90,83,77,29.84,29.66,6,1,10,0.00
2013-2-14,40.0,33.5,28.0,35.0,30.6,25.0,93,89,79,29.76,29.54,8,1,14,0.07
2013-2-15,30.0,25.5,21.0,25.0,17.2,13.0,82,71,57,30.05,29.76,5,1,12,0.03
2013-2-16,24.0,18.7,15.0,17.0,14.1,11.0,89,82,66,30.03,29.93,2,0,5,0.01
2013-2-17,25.0,14.5,2.0,11.0,6.1,-1.0,86,70,49,30.12,30.03,5,0,7,0.01
2013-2-18,41.0,30.3,13.0,37.0,21.5,9.0,89,70,57,30.10,29.45,10,1,13,0.04
2013-2-19,43.0,30.4,19.0,40.0,26.4,13.0,93,85,78,29.80,29.26,12,4,24,0.12
2013-2-20,23.0,19.7,16.0,15.0,11.8,8.0,78,71,62,30.18,29.80,7,2,15,0.01
2013-2-21,24.0,20.5,18.0,19.0,13.9,11.0,88,76,63,30.33,30.17,5,1,10,0.00
2013-2-22,31.0,26.0,21.0,29.0,23.2,18.0,94,89,80,30.22,29.77,7,1,12,0.01
2013-2-23,34.0,30.1,26.0,31.0,26.3,23.0,94,86,71,29.81,29.76,12,1,14,0.04
2013-2-24,40.0,30.8,25.0,29.0,24.4,22.0,92,78,55,30.08,29.79,4,0,9,0.07
2013-2-25,40.0,32.5,29.0,28.0,25.3,22.0,85,75,59,30.15,30.06,4,0,6,0.04
2013-2-26,36.0,31.1,25.0,32.0,26.7,21.0,95,84,75,30.09,29.54,10,2,21,0.01
2013-2-27,35.0,33.8,33.0,34.0,32.8,32.0,96,95,95,29.54,29.45,7,1,9,0.33
2013-2-28,36.0,33.6,30.0,33.0,29.8,23.0,96,86,76,29.93,29.52,3,1,12,0.29
2013-3-1,33.0,27.8,24.0,23.0,20.6,17.0,80,74,64,30.08,29.93,5,1,9,0.04
2013-3-2,28.0,24.5,21.0,19.0,17.1,15.0,82,74,66,30.07,30.01,5,0,9,0.01
2013-3-4,28.0,22.7,18.0,19.0,17.2,15.0,86,79,67,30.07,30.02,0,0,0,0.04
2013-3-5,33.0,24.2,14.0,27.0,20.1,11.0,91,84,70,30.08,29.86,18,1,18,0.01
2013-3-6,41.0,34.0,30.0,33.0,29.2,25.0,92,83,70,30.15,29.89,6,1,12,0.01
2013-3-7,37.0,31.9,23.0,31.0,24.3,18.0,92,75,53,30.35,30.14,4,0,10,0.01
2013-3-8,40.0,28.8,17.0,27.0,21.3,14.0,90,75,55,30.43,30.34,5,0,7,0.00
2013-3-9,43.0,33.8,23.0,33.0,27.5,21.0,93,79,61,30.35,29.97,5,0,12,0.01
2013-3-10,49.0,41.7,34.0,42.0,37.4,31.0,92,85,76,29.97,29.71,2,0,5,0.13
2013-3-11,49.0,44.0,37.0,48.0,41.8,33.0,96,92,85,29.72,29.38,13,1,14,0.38
2013-3-12,37.0,33.5,30.0,34.0,28.8,25.0,91,83,70,29.80,29.53,10,2,16,0.18
2013-3-13,34.0,28.7,24.0,25.0,19.4,15.0,86,69,46,30.12,29.78,7,2,17,0.01
2013-3-14,41.0,30.7,22.0,24.0,19.3,15.0,79,63,45,30.17,29.98,6,1,10,0.01
2013-3-15,42.0,35.6,31.0,32.0,28.0,21.0,83,74,56,29.98,29.79,5,1,17,0.01
2013-3-16,32.0,27.7,24.0,27.0,23.9,21.0,90,85,78,29.97,29.75,6,1,11,0.01
2013-3-17,30.0,23.5,17.0,22.0,15.0,10.0,88,70,48,30.24,29.97,5,1,10,0.01
2013-3-18,33.0,27.4,19.0,31.0,22.8,13.0,94,83,68,30.16,29.48,5,1,16,0.01
2013-3-19,34.0,26.1,22.0,32.0,20.3,15.0,94,78,66,29.80,29.47,13,3,21,0.01
2013-3-20,28.0,23.2,18.0,18.0,14.2,11.0,77,68,56,29.85,29.79,10,2,17,0.00
2013-3-21,33.0,26.2,17.0,24.0,19.2,11.0,84,75,63,29.86,29.75,5,1,12,0.00
2013-3-22,40.0,30.1,25.0,26.0,21.6,18.0,85,71,57,29.96,29.86,5,1,12,0.01
2013-3-23,39.0,32.0,27.0,28.0,25.1,23.0,87,76,62,30.05,29.96,3,0,5,0.03
2013-3-24,39.0,30.7,23.0,29.0,25.3,21.0,93,81,56,30.01,29.67,13,2,17,0.02
2013-3-25,43.0,36.0,31.0,31.0,28.6,26.0,84,75,57,29.88,29.62,6,2,14,0.03
2013-3-26,44.0,37.0,32.0,35.0,29.8,26.0,87,75,62,30.05,29.88,4,0,7,0.03
2013-3-27,49.0,38.6,31.0,31.0,27.4,24.0,81,65,47,30.14,30.04,9,1,16,0.01
2013-3-28,54.0,41.0,31.0,30.0,26.7,24.0,78,58,39,30.21,30.14,5,0,11,0.00
2013-3-29,53.0,38.8,25.0,30.0,25.0,21.0,86,60,36,30.21,30.12,5,0,9,0.00
2013-4-1,29.0,27.3,25.0,19.0,17.6,16.0,70,67,64,30.01,29.94,1,0,8,0.00
2013-4-2,41.0,30.6,20.0,20.0,16.7,13.0,87,59,34,30.18,30.01,9,1,15,0.00
2013-4-3,45.0,31.6,20.0,21.0,17.6,14.0,80,58,35,30.36,30.18,7,0,13,0.00
2013-4-4,56.0,40.6,26.0,31.0,24.7,19.0,79,55,34,30.27,29.85,12,2,19,0.00
2013-4-5,49.0,38.2,28.0,33.0,25.3,20.0,87,62,33,30.16,29.90,5,0,11,0.00
2013-4-6,51.0,39.4,30.0,33.0,26.0,22.0,81,60,40,30.16,29.63,10,2,18,0.00
2013-4-7,56.0,46.5,39.0,49.0,37.4,31.0,87,71,47,29.98,29.46,16,2,20,0.00
2013-4-8,47.0,39.0,30.0,44.0,36.3,27.0,95,90,71,29.97,29.61,6,0,10,0.60
2013-4-9,43.0,40.1,36.0,42.0,39.0,34.0,96,95,94,30.02,29.84,6,0,10,1.12
2013-4-10,40.0,38.2,37.0,38.0,36.0,33.0,95,92,81,30.01,29.86,10,2,15,0.72
2013-4-11,38.0,35.0,34.0,34.0,32.7,32.0,95,92,83,29.98,29.66,10,2,20,1.23
2013-4-12,43.0,37.0,33.0,38.0,34.8,32.0,95,92,76,29.68,29.49,7,1,18,0.80
2013-4-13,42.0,37.5,35.0,35.0,31.7,26.0,94,80,60,29.90,29.66,10,2,17,0.02
2013-4-14,47.0,38.2,29.0,36.0,31.4,26.0,93,78,58,30.03,29.88,5,0,10,0.01
2013-4-15,67.0,51.9,35.0,57.0,45.6,32.0,95,80,65,29.86,29.76,15,1,17,0.18
2013-4-16,59.0,50.6,43.0,53.0,40.3,34.0,95,70,43,30.22,29.83,9,1,13,0.77
2013-4-17,50.0,42.8,38.0,40.0,37.2,34.0,94,81,67,30.31,29.99,9,1,11,0.41
2013-4-18,63.0,52.8,42.0,61.0,50.8,40.0,97,93,85,30.00,29.36,6,1,12,1.50
2013-4-19,62.0,43.7,36.0,58.0,38.3,26.0,95,81,66,29.62,29.29,19,4,33,0.44
2013-4-20,39.0,33.3,28.0,27.0,21.6,18.0,81,62,50,30.37,29.62,10,2,17,0.05
2013-4-21,52.0,37.6,23.0,31.0,25.5,19.0,88,64,42,30.55,30.38,6,1,15,0.01
2013-4-22,63.0,47.3,30.0,41.0,32.8,26.0,89,60,34,30.41,30.12,6,1,11,0.00
2013-4-23,62.0,51.6,40.0,54.0,43.8,35.0,94,75,56,30.12,29.75,13,0,15,0.28
2013-4-24,49.0,39.5,34.0,39.0,32.0,23.0,94,77,44,30.02,29.78,6,1,12,0.55
2013-4-25,51.0,41.9,36.0,42.0,31.6,27.0,92,69,42,30.26,29.96,9,1,19,0.09
2013-4-26,58.0,42.0,30.0,38.0,32.3,28.0,92,71,44,30.35,30.26,7,1,14,0.02
2013-4-29,66.0,64.8,64.0,56.0,55.4,55.0,74,71,69,29.83,29.82,3,1,3,0.00
2013-4-30,74.0,63.3,56.0,61.0,56.3,52.0,94,79,61,29.95,29.83,14,2,18,0.25
2013-5-1,85.0,71.0,54.0,63.0,57.7,52.0,93,66,40,30.16,29.95,9,1,15,0.01
2013-5-2,82.0,70.4,56.0,61.0,55.9,52.0,88,62,42,30.17,30.04,6,1,13,0.00
2013-5-3,81.0,69.1,56.0,59.0,50.4,37.0,76,53,29,30.08,29.98,13,2,17,0.00
2013-5-4,77.0,66.4,56.0,54.0,45.8,39.0,72,49,28,30.06,30.00,7,1,15,0.00
2013-5-5,78.0,61.8,47.0,51.0,45.6,41.0,81,59,28,30.06,29.98,6,1,13,0.00
2013-5-6,78.0,61.5,45.0,55.0,46.3,41.0,95,63,30,30.02,29.93,6,1,11,0.00
2013-5-7,80.0,63.1,45.0,55.0,48.7,42.0,94,63,38,30.01,29.95,7,1,12,0.00
2013-5-8,83.0,65.6,48.0,54.0,49.1,45.0,92,60,32,29.99,29.90,5,0,10,0.00
2013-5-9,81.0,65.7,50.0,60.0,52.5,48.0,95,67,34,29.93,29.82,4,0,7,0.00
2013-5-10,60.0,55.6,50.0,52.0,50.2,47.0,90,82,73,29.87,29.80,4,1,13,0.08
2013-5-17,54.0,54.0,54.0,50.0,50.0,50.0,85,85,85,30.03,30.03,0,0,12,0.00
2013-5-18,75.0,61.6,53.0,55.0,51.1,47.0,88,70,48,30.12,29.98,6,0,10,0.00
2013-5-19,87.0,68.2,50.0,65.0,56.2,48.0,94,69,44,30.00,29.81,4,0,6,0.00
2013-5-20,89.0,72.2,63.0,71.0,65.3,60.0,96,81,52,29.86,29.67,6,1,21,0.80
2013-5-21,78.0,69.3,63.0,68.0,64.8,62.0,97,86,69,29.75,29.65,6,1,14,0.13
2013-5-22,69.0,65.2,62.0,67.0,63.7,60.0,97,95,86,29.66,29.56,5,0,9,0.93
2013-5-23,63.0,51.5,45.0,60.0,49.6,41.0,96,93,86,30.12,29.59,4,0,10,0.88
2013-5-24,61.0,47.2,36.0,46.0,39.0,34.0,93,75,49,30.32,30.12,5,0,10,0.01
2013-5-25,64.0,50.7,36.0,46.0,40.9,34.0,96,72,47,30.36,30.25,7,0,9,0.00
2013-5-26,68.0,53.7,37.0,47.0,42.0,35.0,96,68,42,30.30,30.20,4,0,6,0.00
2013-5-27,72.0,56.4,41.0,50.0,42.9,38.0,94,65,32,30.22,29.97,5,1,9,0.00
2013-5-28,74.0,60.5,53.0,69.0,58.1,49.0,97,92,78,29.97,29.70,3,0,7,1.81
2013-5-29,78.0,69.1,64.0,70.0,66.2,63.0,97,90,75,29.91,29.71,7,1,12,1.30
2013-5-30,87.0,74.2,62.0,74.0,67.7,61.0,97,82,59,29.95,29.87,5,1,13,0.15
2013-5-31,79.0,74.2,70.0,69.0,67.3,65.0,92,80,67,29.90,29.76,8,1,13,0.15
2013-6-1,80.0,72.4,68.0,67.0,65.4,63.0,92,80,62,29.77,29.61,7,2,15,0.00
2013-6-2,68.0,59.5,47.0,63.0,52.3,-99.9,93,81,67,29.96,29.56,5,1,14,0.02
2013-6-3,70.0,53.3,38.0,48.0,42.2,36.0,95,69,42,30.04,29.94,6,0,10,0.01
2013-6-4,72.0,57.9,43.0,51.0,45.0,40.0,94,66,38,30.14,30.04,4,0,6,0.00
2013-6-5,71.0,60.6,54.0,52.0,46.7,41.0,82,62,36,30.15,30.00,5,0,12,0.00
2013-6-6,65.0,59.5,56.0,54.0,50.5,48.0,84,73,56,30.00,29.87,4,0,16,0.00
2013-6-7,69.0,58.4,49.0,55.0,51.3,46.0,93,79,62,29.89,29.84,6,0,10,0.00
2013-6-8,74.0,60.2,48.0,58.0,52.8,46.0,96,79,51,30.03,29.87,2,0,6,0.00
2013-6-9,79.0,65.9,51.0,62.0,56.0,49.0,96,73,52,30.05,29.92,7,1,10,0.00
2013-6-10,69.0,64.7,60.0,65.0,61.2,55.0,96,89,63,29.92,29.71,4,0,6,0.18
2013-6-11,81.0,70.6,63.0,68.0,64.4,62.0,97,82,63,29.83,29.75,5,1,12,0.02
2013-6-12,79.0,68.0,59.0,68.0,63.3,57.0,97,86,66,29.85,29.64,6,0,9,0.07
2013-6-13,78.0,68.6,60.0,65.0,60.8,56.0,96,78,54,29.91,29.62,7,1,12,0.22
2013-6-14,79.0,65.4,53.0,58.0,54.2,50.0,94,70,38,30.05,29.91,4,0,6,0.01
2013-6-15,77.0,64.9,50.0,63.0,56.6,48.0,95,76,52,30.00,29.84,7,0,12,0.00
2013-6-16,82.0,71.6,64.0,67.0,62.3,54.0,96,75,41,29.85,29.68,6,1,14,0.55
2013-6-17,80.0,66.8,59.0,69.0,60.2,55.0,93,80,59,29.92,29.79,3,0,7,1.09
2013-6-18,71.0,62.0,52.0,56.0,51.3,45.0,93,70,42,30.06,29.90,11,1,15,0.23
2013-6-19,75.0,60.4,44.0,54.0,48.0,42.0,95,68,39,30.13,30.05,4,0,9,0.00
2013-6-20,82.0,63.4,52.0,59.0,53.7,50.0,95,74,39,30.14,30.09,4,0,6,0.00
2013-6-22,87.0,82.8,75.0,74.0,71.1,69.0,81,68,59,30.00,29.90,4,0,11,0.00
2013-6-23,90.0,76.9,63.0,73.0,67.8,62.0,96,75,52,29.98,29.87,9,1,13,0.00
2013-6-24,86.0,76.8,69.0,72.0,69.0,66.0,94,78,58,29.95,29.85,5,1,13,0.00
2013-6-25,79.0,73.6,69.0,70.0,67.7,65.0,94,82,69,29.85,29.76,8,1,10,0.04
2013-6-26,87.0,75.8,63.0,73.0,68.6,62.0,96,80,57,29.80,29.68,3,0,6,0.01
2013-6-27,84.0,73.1,67.0,74.0,69.3,66.0,96,88,65,29.72,29.60,4,0,14,0.56
2013-6-28,76.0,67.7,64.0,68.0,65.4,62.0,97,92,72,29.58,29.49,5,0,9,2.73
2013-6-29,74.0,66.2,61.0,64.0,62.0,58.0,97,87,71,29.72,29.51,3,0,5,1.99
2013-6-30,80.0,67.1,57.0,66.0,58.5,48.0,96,76,48,29.95,29.72,3,0,10,0.02
2013-7-1,75.0,62.2,53.0,61.0,53.1,46.0,90,74,54,30.08,29.95,10,1,12,0.00
2013-7-2,76.0,65.2,57.0,61.0,54.4,47.0,90,69,49,30.06,30.01,5,0,11,0.02
2013-7-3,81.0,68.1,56.0,70.0,62.5,54.0,95,83,63,30.05,29.98,4,0,6,0.01
2013-7-4,79.0,70.8,61.0,67.0,63.5,60.0,97,79,58,30.06,30.01,6,1,9,0.00
2013-7-5,84.0,72.4,64.0,69.0,65.2,62.0,95,80,57,30.05,29.98,4,0,7,0.00
2013-7-6,87.0,75.0,64.0,72.0,67.6,63.0,96,79,55,30.03,29.92,3,0,6,0.00
2013-7-7,82.0,74.6,71.0,75.0,70.2,67.0,95,86,70,29.95,29.88,5,0,6,0.07
2013-7-8,79.0,73.1,71.0,74.0,70.5,69.0,96,92,78,29.94,29.89,3,0,7,0.11
2013-7-9,86.0,74.0,68.0,76.0,70.5,67.0,97,89,68,29.93,29.79,3,0,5,0.05
2013-7-10,82.0,73.9,62.0,74.0,64.4,-99.9,96,77,54,29.90,29.70,6,1,11,0.03
2013-7-11,81.0,66.4,56.0,64.0,58.8,55.0,96,78,53,30.04,29.92,3,0,6,0.00
2013-7-12,83.0,66.9,52.0,66.0,59.2,50.0,96,78,52,30.13,30.05,4,0,6,0.00
2013-7-13,87.0,72.4,58.0,67.0,62.5,56.0,96,74,43,30.17,30.11,7,0,7,0.00
2013-7-14,92.0,76.7,63.0,74.0,67.9,61.0,96,76,51,30.20,30.17,3,0,6,0.00
2013-7-15,95.0,79.7,69.0,77.0,72.1,68.0,96,80,53,30.24,30.17,1,0,5,0.00
2013-7-16,93.0,82.6,73.0,80.0,74.9,71.0,96,79,60,30.23,30.16,3,0,6,0.00
2013-7-17,93.0,80.9,72.0,80.0,74.3,70.0,94,82,58,30.19,30.08,4,1,10,0.64
2013-7-18,93.0,83.2,71.0,79.0,73.4,69.0,96,75,55,30.09,29.85,5,1,11,0.18
2013-7-19,91.0,83.6,77.0,76.0,73.9,72.0,88,74,56,29.86,29.62,12,3,18,0.15
2013-7-20,82.0,72.5,65.0,70.0,64.0,-99.9,95,78,50,29.91,29.69,4,0,9,0.14
2013-7-21,82.0,68.2,55.0,62.0,58.1,52.0,93,72,40,29.97,29.88,3,0,6,0.01
2013-7-22,84.0,69.7,63.0,71.0,63.9,59.0,94,82,60,29.92,29.68,2,0,11,0.21
2013-7-23,76.0,68.8,60.0,70.0,62.5,50.0,93,81,60,29.85,29.59,4,0,10,0.21
2013-7-24,70.0,60.8,49.0,55.0,51.3,46.0,93,72,54,30.01,29.87,3,0,6,0.00
2013-7-25,78.0,63.0,48.0,59.0,53.1,46.0,95,73,46,30.05,30.00,3,0,9,0.00
2013-7-26,78.0,65.2,56.0,66.0,59.4,52.0,95,82,59,30.02,29.83,4,0,9,0.11
2013-7-27,76.0,66.3,57.0,66.0,60.6,50.0,96,82,66,29.83,29.68,6,1,12,0.11
2013-7-28,66.0,58.1,49.0,57.0,52.7,46.0,93,83,69,29.89,29.74,4,0,9,0.04
2013-7-29,72.0,61.0,56.0,60.0,56.5,54.0,95,86,63,30.12,29.87,6,0,7,0.16
2013-7-30,79.0,64.0,49.0,61.0,56.4,48.0,97,78,50,30.17,30.07,3,0,4,0.00
2013-7-31,67.0,64.3,62.0,65.0,62.5,59.0,96,93,88,30.07,29.85,1,0,3,0.47
2013-8-1,79.0,68.4,60.0,65.0,60.2,55.0,97,77,50,29.86,29.81,4,0,12,0.01
2013-8-2,76.0,64.7,54.0,65.0,59.6,52.0,95,84,67,29.86,29.75,9,1,13,0.15
2013-8-3,77.0,65.9,54.0,62.0,57.3,53.0,97,76,53,30.03,29.85,5,0,9,0.15
2013-8-4,60.0,55.7,53.0,55.0,52.9,51.0,94,91,84,31.11,30.03,0,0,4,0.01
2013-10-29,36.0,35.4,35.0,34.0,33.4,33.0,93,93,92,30.21,30.14,0,0,7,0.04
2013-10-30,60.0,43.9,30.0,49.0,39.2,28.0,96,85,65,30.19,29.87,4,0,6,0.01
2013-10-31,62.0,58.0,53.0,61.0,56.6,48.0,97,95,77,29.87,29.00,3,1,13,0.89
2013-11-1,61.0,49.3,47.0,60.0,46.4,44.0,96,90,83,29.58,28.99,13,3,23,0.08
2013-11-2,47.0,42.9,38.0,46.0,40.1,32.0,95,89,75,30.07,29.58,5,0,7,0.10
2013-11-3,45.0,37.5,27.0,38.0,30.8,-99.9,95,80,66,30.38,30.07,3,0,5,0.01
2013-11-4,50.0,41.4,33.0,36.0,31.2,28.0,88,69,44,30.40,30.19,7,1,15,0.01
2013-11-5,60.0,51.3,45.0,49.0,44.3,36.0,84,77,67,30.25,30.06,5,1,7,0.00
2013-11-6,57.0,51.2,41.0,55.0,47.6,37.0,96,87,71,30.05,29.62,7,2,15,0.53
2013-11-7,43.0,39.0,36.0,37.0,30.8,26.0,87,73,57,30.05,29.93,5,1,11,0.04
2013-11-8,45.0,36.4,29.0,32.0,28.5,25.0,88,74,52,30.18,30.03,5,1,7,0.00
2013-11-9,51.0,45.1,36.0,43.0,35.0,-99.9,80,70,59,30.08,29.67,11,3,24,0.00
2013-11-10,48.0,42.0,32.0,36.0,32.1,27.0,84,68,54,30.18,29.81,11,2,18,0.00
2013-11-11,41.0,35.4,27.0,38.0,30.1,19.0,91,81,69,30.28,29.95,4,0,11,0.13
2013-11-12,34.0,26.8,20.0,24.0,18.6,16.0,91,72,52,30.47,30.28,3,0,15,0.01
2013-11-13,44.0,30.5,19.0,27.0,20.7,16.0,90,69,41,30.45,30.01,11,2,21,0.00
2013-11-14,48.0,39.0,32.0,33.0,28.7,25.0,78,67,52,30.01,29.85,9,2,16,0.00
2013-11-15,49.0,42.3,33.0,35.0,31.7,29.0,85,66,59,29.95,29.86,7,1,10,0.00
2013-11-16,56.0,43.0,30.0,52.0,37.3,-99.9,91,84,75,29.98,29.68,8,1,16,0.09
2013-11-17,63.0,57.3,45.0,59.0,54.7,42.0,95,91,86,29.66,29.03,13,3,25,0.85
2013-11-18,46.0,39.6,36.0,43.0,31.1,25.0,90,72,64,30.04,29.29,18,4,21,0.25
2013-11-19,43.0,34.8,28.0,27.0,24.5,22.0,83,66,51,30.33,30.05,4,0,11,0.01
2013-11-20,47.0,34.9,25.0,34.0,28.0,22.0,90,76,54,30.35,30.16,6,0,11,0.00
2013-11-21,49.0,43.0,37.0,43.0,38.8,31.0,94,85,74,30.21,30.10,2,0,5,0.09
2013-11-22,45.0,37.8,26.0,44.0,34.1,22.0,96,86,69,30.30,30.07,7,1,11,0.02
2013-11-23,29.0,23.5,17.0,24.0,15.4,-99.9,89,74,51,30.44,30.17,12,1,16,0.01
2013-11-24,25.0,19.6,14.0,16.0,11.8,9.0,85,72,56,30.50,30.27,7,0,12,0.00
2013-11-25,32.0,26.8,22.0,29.0,18.4,8.0,93,71,52,30.26,29.91,11,2,19,0.01
2013-11-26,33.0,31.4,28.0,30.0,28.5,23.0,93,89,81,29.97,29.86,4,0,7,0.01
2013-11-27,28.0,22.9,16.0,21.0,14.6,10.0,85,71,53,30.11,29.92,4,1,13,0.00
2013-11-28,25.0,21.1,14.0,22.0,18.1,11.0,91,88,80,30.35,30.11,4,0,7,0.00
2013-11-29,25.0,19.9,12.0,22.0,17.7,9.0,92,90,86,30.58,30.35,1,0,3,0.00
2013-11-30,44.0,33.2,23.0,33.0,25.8,-99.9,91,77,65,30.47,29.99,5,1,10,0.07
2013-12-1,39.0,35.5,33.0,35.0,32.0,29.0,92,87,81,29.99,29.94,3,0,5,0.01
2013-12-2,38.0,32.5,25.0,29.0,27.2,22.0,91,81,65,29.95,29.83,2,0,5,0.00
2013-12-3,34.0,28.5,23.0,31.0,26.5,21.0,94,93,91,29.86,29.72,4,0,6,0.01
2013-12-12,20.0,12.7,4.0,16.0,8.1,-1.0,87,82,76,30.35,30.04,7,1,11,0.00
2013-12-13,25.0,21.7,14.0,19.0,16.3,9.0,86,79,72,30.27,30.02,12,1,12,0.00
2013-12-14,22.0,18.7,14.0,20.0,14.6,-99.9,90,87,81,30.26,29.79,5,1,17,0.00
2013-12-15,23.0,18.4,12.0,20.0,13.7,5.0,100,81,65,29.90,29.70,9,1,17,0.00
2013-12-16,20.0,11.1,-3.0,10.0,5.0,-7.0,86,76,60,30.10,29.90,3,0,6,0.00
2013-12-17,30.0,21.7,15.0,27.0,18.5,11.0,90,87,78,29.96,29.73,4,0,6,0.00
2013-12-18,28.0,26.0,23.0,24.0,19.9,14.0,90,78,63,30.00,29.75,6,1,16,0.00
2013-12-19,37.0,28.6,20.0,31.0,23.3,16.0,91,80,65,29.95,29.72,4,0,5,0.00
2013-12-20,33.0,31.4,28.0,31.0,29.4,26.0,94,93,91,29.87,29.70,7,1,10,0.00